[[{"header":{"parameterUnit":"m.s-1","parameterCategory":1,"la1":30.2991,"la2":30.254,"lo1":-89.0895,"lo2":-89.0444,"dy":0.0017,"dx":0.0017,"nx":28,"ny":28,"refTime":"2024-12-31T09:00:00:Z","depth":0,"parameterNumber":2,"parameterNumberName":"U-component_of_WINDS"},"data":[0,0,0,0,0,0,0,0,0,0,0,0,0,0,0,0,0,0,0,0,0,0,0,0,0,0,0,0,0,0,0,0,0,0,0,0,0,0,0,0,0,0,0,0,0,0,0,0,0,0,0,0,0,0,0,0,0,0,0.3914,0.3914,0,0.3962,0.3963,0.3963,0.4004,0.4004,0.4005,0.4005,0.4053,0.4054,0.4055,0,0,0,0,0,0,0,0,0,0,0,0,0,0.3856,0.3857,0.3914,0.3914,0.3915,0.3962,0.3963,0.3963,0.4004,0.4004,0.4005,0.4005,0.4053,0.4054,0.4055,0,0,0,0,0,0,0,0,0,0,0,0,0,0.389,0.3857,0.3914,0.3941,0.3944,0.3962,0.3963,0.3964,0.4004,0.4004,0.4005,0.4006,0.4052,0.4054,0.4055,0.4049,0,0,0.4059,0.4059,0,0,0,0,0,0,0,0,0.3888,0.3893,0.3936,0.3939,0.3942,0.3978,0.396,0.3992,0.4003,0.3981,0.4005,0.4006,0.4027,0.4031,0.4038,0.4052,0.4054,0.4059,0.406,0.406,0.4061,0,0,0,0,0,0,0,0.3886,0.3891,0.3933,0.3937,0.3941,0.3951,0.3956,0.3966,0.4,0.3983,0.3986,0.3991,0.4029,0.4037,0.404,0.4054,0.4059,0.406,0.4061,0.4061,0.4067,0.4067,0,0,0,0,0,0,0.388,0.3888,0.3931,0.3934,0.3917,0.3951,0.3957,0.3966,0.4,0.4006,0.3991,0.3993,0.4034,0.4038,0.4041,0.4038,0.406,0.4061,0.4062,0.4068,0.4067,0.4066,0,0,0,0,0,0,0.3878,0.3883,0.3929,0.3912,0.3919,0.3951,0.396,0.3966,0.3974,0.4006,0.4012,0.3992,0.4035,0.404,0.4048,0.404,0.4062,0.4063,0.4068,0.4067,0.4067,0.403,0,0,0,0,0,0,0.3876,0.3882,0.388,0.3912,0.392,0.3935,0.396,0.3967,0.3976,0.398,0.4009,0.4014,0.4036,0.4045,0.4049,0.4042,0.4064,0.4069,0.4068,0.4067,0.4032,0.4028,0.4024,0,0,0,0,0,0.3874,0.3868,0.388,0.3885,0.3918,0.3934,0.3938,0.3964,0.3976,0.3974,0.3995,0.4013,0.4041,0.4046,0.405,0.4043,0.407,0.4068,0.4067,0.4033,0.4028,0.4024,0,0,0,0,0,0,0.3833,0.3872,0.3886,0.389,0.3909,0.3941,0.394,0.3958,0.3973,0.3975,0.4006,0.4012,0.4017,0.4031,0.4036,0.4041,0.4058,0.4057,0.4031,0.4026,0.4023,0.4018,0.4065,0,0,0,0,0,0.3825,0.3835,0.3868,0.3868,0.3877,0.3907,0.3914,0.3933,0.3953,0.3961,0.3982,0.4,0.4013,0.4021,0.4034,0.4035,0.4042,0.4032,0.4029,0.4025,0.4024,0.4026,0.4022,0.4062,0.4062,0.4062,0,0,0.3807,0.383,0.3834,0.3861,0.3877,0.3886,0.3913,0.3921,0.3929,0.3962,0.397,0.3987,0.401,0.4014,0.4017,0.4026,0.4015,0.4024,0.4021,0.4021,0.4024,0.402,0.4017,0.4061,0.4061,0.4061,0,0,0.378,0.3798,0.38,0.3816,0.3842,0.3862,0.3862,0.3892,0.3905,0.3914,0.3939,0.3949,0.397,0.3986,0.3996,0.3977,0.3994,0.398,0.396,0.3961,0.3958,0.3955,0.3948,0.3945,0.3979,0.3979,0.3979,0,0.3754,0.377,0.3799,0.3806,0.3817,0.3849,0.3851,0.3866,0.3894,0.39,0.3911,0.3939,0.3957,0.3965,0.3961,0.3968,0.397,0.3976,0.3956,0.3954,0.3952,0.3945,0.3942,0.3977,0.3977,0.3977,0.3978,0,0.3737,0.3748,0.3746,0.3773,0.3785,0.3789,0.3819,0.3827,0.3845,0.3864,0.3874,0.3896,0.3915,0.3919,0.3936,0.393,0.3935,0.3951,0.3968,0.3946,0.394,0.3938,0.3974,0.3975,0.3976,0.3976,0,0,0.3683,0.3728,0.3726,0.3739,0.377,0.3779,0.3786,0.3805,0.3811,0.383,0.3836,0.3855,0.387,0.3882,0.3901,0.3902,0.3886,0.3918,0.3919,0.391,0.3881,0.3868,0.3865,0.3898,0.3898,0.3898,0.3879,0,0.366,0.3674,0.3701,0.3706,0.3716,0.3748,0.3754,0.3773,0.3792,0.3803,0.3824,0.3836,0.3855,0.3863,0.3866,0.3887,0.388,0.3889,0.3904,0.3904,0.3896,0.3862,0.3848,0.3829,0.3877,0.3876,0.3876,0,0.3634,0.3652,0.3658,0.3689,0.3695,0.3699,0.372,0.3731,0.3754,0.3767,0.3782,0.3804,0.3813,0.383,0.3843,0.3849,0.3857,0.3868,0.3868,0.387,0.3888,0.3861,0.3823,0.382,0.3873,0.3873,0.3873,0,0.3593,0.3619,0.3626,0.3636,0.3673,0.3676,0.3691,0.3715,0.3726,0.3744,0.3751,0.377,0.378,0.3794,0.382,0.383,0.383,0.385,0.3842,0.3841,0.3839,0.3838,0.38,0.3846,0.3846,0.3846,0.3846,0,0.3563,0.3566,0.3608,0.3612,0.3617,0.3648,0.3651,0.367,0.3691,0.37,0.3729,0.3736,0.3771,0.3783,0.3804,0.3812,0.3816,0.3827,0.3832,0.3824,0.3822,0.3828,0.383,0.3845,0.3845,0.3845,0.3846,0,0.3517,0.3546,0.3556,0.3591,0.36,0.3601,0.3631,0.3636,0.3658,0.3668,0.3673,0.3706,0.3721,0.375,0.3773,0.3787,0.379,0.38,0.3782,0.3785,0.3775,0.3775,0.3739,0.3736,0.3783,0.3783,0.3783,0,0.3496,0.3499,0.3534,0.3542,0.3557,0.3569,0.3581,0.3613,0.3623,0.3651,0.3653,0.3671,0.3687,0.371,0.3736,0.3754,0.3764,0.375,0.3767,0.3758,0.3763,0.3762,0.3763,0.3746,0.3745,0.3745,0.3744,0,0.3454,0.3469,0.3484,0.3504,0.3517,0.3534,0.3553,0.3558,0.3594,0.3605,0.3621,0.3633,0.3658,0.3675,0.3698,0.3714,0.3735,0.3739,0.3738,0.3728,0.3718,0.3723,0.377,0.3739,0.374,0.374,0.374,0.3741,0.3419,0.3424,0.345,0.3466,0.3484,0.3501,0.3508,0.3531,0.3545,0.3568,0.3586,0.3601,0.3626,0.3659,0.3674,0.3686,0.3696,0.3694,0.3694,0.3693,0.3689,0.3717,0.369,0.3691,0.3691,0.3691,0.3691,0,0.3379,0.3398,0.3412,0.3438,0.3451,0.3471,0.3494,0.3503,0.3516,0.3537,0.3553,0.3572,0.359,0.3618,0.3638,0.3643,0.3653,0.3647,0.3646,0.3649,0.3679,0.3678,0.3638,0.3638,0.3638,0.3638,0.3638,0.3638,0.3359,0.3367,0.3385,0.3403,0.3422,0.3437,0.3448,0.3464,0.3482,0.3502,0.3517,0.3536,0.3561,0.3583,0.36,0.3608,0.3614,0.3604,0.3615,0.3642,0.3647,0.3652,0.3651,0.3606,0.3606,0.3584,0.3584,0.3584]},{"header":{"parameterUnit":"m.s-1","parameterCategory":1,"la1":30.2991,"la2":30.254,"lo1":-89.0895,"lo2":-89.0444,"dy":0.0017,"dx":0.0017,"nx":28,"ny":28,"refTime":"2024-12-31T09:00:00:Z","depth":0,"parameterNumber":3,"parameterNumberName":"V-component_of_WINDS"},"data":[0,0,0,0,0,0,0,0,0,0,0,0,0,0,0,0,0,0,0,0,0,0,0,0,0,0,0,0,0,0,0,0,0,0,0,0,0,0,0,0,0,0,0,0,0,0,0,0,0,0,0,0,0,0,0,0,0,0,-6.1732,-6.1733,0,-6.1899,-6.1901,-6.1903,-6.1845,-6.1841,-6.1837,-6.1834,-6.1999,-6.2007,-6.2014,0,0,0,0,0,0,0,0,0,0,0,0,0,-6.1357,-6.1364,-6.1731,-6.1734,-6.1736,-6.1898,-6.1901,-6.1903,-6.1845,-6.1841,-6.1836,-6.1832,-6.1996,-6.2006,-6.2015,0,0,0,0,0,0,0,0,0,0,0,0,0,-6.1521,-6.1366,-6.1731,-6.1727,-6.1728,-6.1898,-6.1901,-6.1904,-6.1846,-6.1841,-6.1835,-6.183,-6.1993,-6.2005,-6.2016,-6.2199,0,0,-6.2052,-6.2057,0,0,0,0,0,0,0,0,-6.1512,-6.1535,-6.1725,-6.1727,-6.1729,-6.1845,-6.1829,-6.2003,-6.1847,-6.1801,-6.1834,-6.1827,-6.1952,-6.1967,-6.201,-6.2207,-6.2214,-6.2053,-6.206,-6.2065,-6.2069,0,0,0,0,0,0,0,-6.1501,-6.1528,-6.1797,-6.1728,-6.173,-6.1714,-6.1732,-6.1862,-6.1905,-6.1805,-6.1801,-6.1822,-6.1952,-6.1999,-6.2013,-6.2216,-6.2053,-6.2063,-6.2071,-6.2075,-6.2572,-6.2578,0,0,0,0,0,0,-6.1489,-6.1518,-6.1792,-6.1802,-6.1605,-6.1726,-6.1745,-6.1813,-6.1904,-6.1912,-6.1826,-6.1818,-6.1981,-6.2,-6.2019,-6.224,-6.2065,-6.2076,-6.2083,-6.2566,-6.2574,-6.258,0,0,0,0,0,0,-6.1481,-6.1514,-6.1785,-6.166,-6.1693,-6.1738,-6.1815,-6.182,-6.1867,-6.192,-6.1927,-6.1867,-6.1978,-6.2002,-6.2155,-6.2245,-6.2082,-6.2092,-6.2559,-6.2568,-6.2577,-6.2683,0,0,0,0,0,0,-6.1471,-6.1512,-6.1583,-6.1662,-6.17,-6.1921,-6.1821,-6.1827,-6.1888,-6.1879,-6.196,-6.1968,-6.1975,-6.2138,-6.2167,-6.2258,-6.2101,-6.2551,-6.2563,-6.2574,-6.2672,-6.2695,-6.2714,0,0,0,0,0,-6.1458,-6.1604,-6.1587,-6.162,-6.179,-6.1926,-6.1948,-6.1955,-6.1895,-6.1966,-6.2001,-6.1965,-6.223,-6.2154,-6.2186,-6.2282,-6.2545,-6.256,-6.2573,-6.2662,-6.269,-6.2714,0,0,0,0,0,0,-6.1533,-6.1615,-6.1596,-6.1773,-6.1844,-6.1916,-6.2006,-6.1985,-6.2072,-6.206,-6.2063,-6.2082,-6.224,-6.2276,-6.219,-6.2464,-6.2379,-6.24,-6.2435,-6.2462,-6.2483,-6.2471,-6.2111,0,0,0,0,0,-6.157,-6.1676,-6.1741,-6.1891,-6.1927,-6.1961,-6.202,-6.202,-6.2093,-6.2121,-6.2167,-6.2237,-6.2336,-6.2401,-6.2495,-6.2676,-6.2693,-6.2758,-6.2779,-6.2796,-6.2815,-6.2914,-6.2943,-6.2626,-6.2626,-6.2625,0,0,-6.1648,-6.1706,-6.1772,-6.1907,-6.1962,-6.207,-6.1986,-6.2104,-6.2183,-6.2138,-6.2287,-6.2323,-6.24,-6.2569,-6.2645,-6.2604,-6.2906,-6.2814,-6.2827,-6.2836,-6.2931,-6.2961,-6.2988,-6.2635,-6.2633,-6.2632,0,0,-6.1845,-6.19,-6.2031,-6.2088,-6.2173,-6.2195,-6.2226,-6.2303,-6.2326,-6.2475,-6.2444,-6.2537,-6.2708,-6.2765,-6.2817,-6.3037,-6.3007,-6.3067,-6.3179,-6.3275,-6.33,-6.3323,-6.3402,-6.343,-6.3085,-6.3085,-6.3085,0,-6.1931,-6.2094,-6.2101,-6.2222,-6.2283,-6.2249,-6.2382,-6.2436,-6.2546,-6.2588,-6.254,-6.2754,-6.2804,-6.2986,-6.304,-6.3082,-6.3118,-6.3058,-6.3297,-6.3319,-6.334,-6.3415,-6.3445,-6.3092,-6.3091,-6.309,-6.309,0,-6.2196,-6.2309,-6.2405,-6.2515,-6.2586,-6.2712,-6.2737,-6.2807,-6.2801,-6.2827,-6.298,-6.3039,-6.3145,-6.3187,-6.3181,-6.3369,-6.334,-6.3295,-6.3209,-6.3377,-6.3448,-6.3477,-6.3102,-6.3099,-6.3097,-6.3095,0,0,-6.2445,-6.2559,-6.2594,-6.2644,-6.2735,-6.2822,-6.2946,-6.3052,-6.3113,-6.3189,-6.3293,-6.3439,-6.3398,-6.3456,-6.3456,-6.3541,-6.3712,-6.3485,-6.3486,-6.3526,-6.3923,-6.3958,-6.3991,-6.3693,-6.3699,-6.3703,-6.3917,0,-6.2651,-6.2872,-6.2882,-6.3082,-6.3187,-6.3157,-6.3265,-6.3332,-6.336,-6.3451,-6.3481,-6.3585,-6.3522,-6.3557,-6.364,-6.3674,-6.3792,-6.3659,-6.3789,-6.3793,-6.3772,-6.4028,-6.4065,-6.4264,-6.3944,-6.3949,-6.3952,0,-6.292,-6.3009,-6.322,-6.3298,-6.3342,-6.344,-6.3538,-6.3626,-6.3701,-6.3715,-6.3781,-6.3769,-6.3894,-6.3804,-6.3977,-6.3886,-6.3939,-6.3964,-6.3972,-6.3985,-6.3884,-6.4049,-6.4327,-6.4357,-6.3996,-6.3993,-6.3989,0,-6.3082,-6.3254,-6.3403,-6.3446,-6.354,-6.3609,-6.3651,-6.372,-6.3784,-6.3869,-6.391,-6.4007,-6.4061,-6.4135,-6.4149,-6.4082,-6.4323,-6.4233,-6.4337,-6.4337,-6.439,-6.4386,-6.4682,-6.4423,-6.4423,-6.4422,-6.4422,0,-6.3312,-6.3442,-6.3477,-6.3569,-6.3715,-6.3724,-6.3867,-6.3903,-6.3966,-6.4063,-6.4041,-6.4133,-6.4145,-6.4239,-6.425,-6.4392,-6.4416,-6.443,-6.4432,-6.4433,-6.4431,-6.4468,-6.4455,-6.443,-6.4428,-6.4427,-6.4425,0,-6.3517,-6.3546,-6.3707,-6.3783,-6.3805,-6.3909,-6.3973,-6.4061,-6.4086,-6.421,-6.4239,-6.4279,-6.4388,-6.441,-6.4538,-6.4546,-6.4715,-6.4702,-6.4691,-6.469,-6.4793,-6.4783,-6.5123,-6.5168,-6.4879,-6.4882,-6.4884,0,-6.3662,-6.3763,-6.385,-6.3915,-6.3961,-6.4066,-6.4131,-6.4143,-6.4212,-6.4305,-6.4381,-6.4489,-6.4576,-6.4752,-6.4791,-6.489,-6.4879,-6.4992,-6.4894,-6.4892,-6.4882,-6.4876,-6.4887,-6.5011,-6.5014,-6.5016,-6.5018,0,-6.3917,-6.3926,-6.4022,-6.4124,-6.4203,-6.4283,-6.4359,-6.4413,-6.4435,-6.4513,-6.4626,-6.4694,-6.4827,-6.4934,-6.5032,-6.5073,-6.505,-6.5049,-6.5078,-6.5081,-6.5071,-6.5078,-6.4743,-6.5041,-6.5039,-6.5037,-6.5036,-6.5035,-6.4097,-6.4185,-6.4262,-6.437,-6.4428,-6.45,-6.4587,-6.4624,-6.472,-6.4831,-6.4831,-6.4955,-6.5027,-6.5157,-6.5204,-6.53,-6.5264,-6.5306,-6.5317,-6.5328,-6.5338,-6.5055,-6.5318,-6.5317,-6.5316,-6.5316,-6.5315,0,-6.4351,-6.4399,-6.4498,-6.4607,-6.4691,-6.4664,-6.4747,-6.4819,-6.4929,-6.4999,-6.5086,-6.5216,-6.532,-6.5368,-6.547,-6.5538,-6.553,-6.5564,-6.556,-6.557,-6.5364,-6.5329,-6.5569,-6.5569,-6.5569,-6.5569,-6.5569,-6.5569,-6.4494,-6.4642,-6.4661,-6.4838,-6.4884,-6.5008,-6.5057,-6.5123,-6.5179,-6.5327,-6.5414,-6.5445,-6.5506,-6.5613,-6.5706,-6.5717,-6.5756,-6.5796,-6.5802,-6.561,-6.5584,-6.5559,-6.5526,-6.5804,-6.5805,-6.6,-6.6002,-6.6003]}]]